When you browse on this site, cookies collect data to enhance your experience and personalize the content and advertising you see.
Visit our Privacy Policy to learn more. By continuing to use the site, you agree to this use of cookies and data.
  • în România
  • Lista ţărilor
  • Pe 7 zile
  • Temperatura apei
  • Hartă satelitară
  • Meteo pe hartă
  • Widget-uri
  • user-avatar
    Intrare

    Meteo pe oră la Arneburg

    Astăzi, 16 Iulie, Marţi

    Timp Temperatura Precipitaţii Vânt Presiune Umiditate
    00:00 +14°C° 0 mm 4 m/s 758 mmHg 76%
    01:00 +14°C° 0 mm 4 m/s 758 mmHg 79%
    02:00 +14°C° 0 mm 4 m/s 758 mmHg 79%
    03:00 +14°C° 0 mm 4 m/s 758 mmHg 79%
    04:00 +14°C° 0 mm 4 m/s 757 mmHg 80%
    05:00 +14°C° 0 mm 4 m/s 757 mmHg 79%
    06:00 +14°C° 0 mm 4 m/s 758 mmHg 79%
    07:00 +15°C° 0 mm 5 m/s 758 mmHg 79%
    08:00 +15°C° 0 mm 5 m/s 758 mmHg 78%
    09:00 +16°C° 0 mm 5 m/s 758 mmHg 77%
    10:00 +16°C° 0 mm 5 m/s 758 mmHg 75%
    11:00 +17°C° 0 mm 5 m/s 758 mmHg 74%
    12:00 +17°C° 0 mm 5 m/s 758 mmHg 73%
    13:00 +19°C° 0 mm 5 m/s 758 mmHg 71%
    14:00 +19°C° 0 mm 5 m/s 758 mmHg 71%
    15:00 +19°C° 0 mm 5 m/s 758 mmHg 71%
    16:00 +20°C° 0 mm 5 m/s 758 mmHg 70%
    17:00 +19°C° 0 mm 4 m/s 758 mmHg 71%
    18:00 +19°C° 0 mm 4 m/s 758 mmHg 72%
    19:00 +19°C° 0 mm 3 m/s 758 mmHg 73%
    20:00 +18°C° 0 mm 3 m/s 758 mmHg 76%
    21:00 +17°C° 0 mm 3 m/s 758 mmHg 78%
    22:00 +16°C° 0 mm 3 m/s 759 mmHg 81%
    23:00 +14°C° 0 mm 3 m/s 759 mmHg 85%

    Mâine, 17 Iulie, Miercuri

    Timp Temperatura Precipitaţii Vânt Presiune Umiditate
    00:00 +13°C° 0 mm 3 m/s 759 mmHg 90%
    01:00 +13°C° 0 mm 2 m/s 759 mmHg 94%
    02:00 +12°C° 0 mm 2 m/s 758 mmHg 95%
    03:00 +12°C° 0 mm 2 m/s 758 mmHg 96%
    04:00 +10°C° 0 mm 2 m/s 758 mmHg 97%
    05:00 +12°C° 0 mm 2 m/s 758 mmHg 93%
    06:00 +13°C° 0 mm 2 m/s 758 mmHg 89%
    07:00 +15°C° 0 mm 2 m/s 758 mmHg 85%
    08:00 +15°C° 0 mm 2 m/s 758 mmHg 81%
    09:00 +16°C° 0 mm 2 m/s 758 mmHg 77%
    10:00 +17°C° 0 mm 2 m/s 758 mmHg 73%
    11:00 +18°C° 0 mm 2 m/s 758 mmHg 70%
    12:00 +19°C° 0 mm 2 m/s 758 mmHg 67%
    13:00 +20°C° 0 mm 2 m/s 758 mmHg 64%
    14:00 +21°C° 0 mm 1 m/s 757 mmHg 61%
    15:00 +22°C° 0 mm 1 m/s 757 mmHg 57%
    16:00 +23°C° 0 mm 1 m/s 757 mmHg 53%
    17:00 +24°C° 0 mm 1 m/s 757 mmHg 53%
    18:00 +23°C° 0 mm 1 m/s 757 mmHg 57%
    19:00 +23°C° 0 mm 1 m/s 757 mmHg 61%
    20:00 +21°C° 0 mm 1 m/s 757 mmHg 66%
    21:00 +20°C° 0 mm 1 m/s 757 mmHg 71%
    22:00 +18°C° 0 mm 1 m/s 757 mmHg 76%
    23:00 +18°C° 0 mm 1 m/s 757 mmHg 79%

    Poimâine, 18 Iulie, Joi

    Timp Temperatura Precipitaţii Vânt Presiune Umiditate
    00:00 +16°C° 0 mm 1 m/s 757 mmHg 81%
    01:00 +15°C° 0 mm 1 m/s 757 mmHg 84%
    02:00 +15°C° 0 mm 1 m/s 757 mmHg 84%
    03:00 +15°C° 0 mm 1 m/s 757 mmHg 85%
    04:00 +15°C° 0 mm 1 m/s 757 mmHg 86%
    05:00 +16°C° 0 mm 1 m/s 756 mmHg 83%
    06:00 +18°C° 0 mm 1 m/s 756 mmHg 79%
    07:00 +18°C° 0 mm 1 m/s 756 mmHg 76%
    08:00 +20°C° 0 mm 1 m/s 756 mmHg 71%
    09:00 +21°C° 0 mm 1 m/s 756 mmHg 66%
    10:00 +23°C° 0 mm 1 m/s 756 mmHg 61%
    11:00 +24°C° 0.2 mm 1 m/s 756 mmHg 59%
    12:00 +24°C° 0.2 mm 2 m/s 756 mmHg 56%
    13:00 +25°C° 0.2 mm 2 m/s 755 mmHg 54%
    14:00 +25°C° 0.2 mm 2 m/s 755 mmHg 52%
    15:00 +25°C° 0.2 mm 2 m/s 755 mmHg 50%
    16:00 +26°C° 0.2 mm 1 m/s 755 mmHg 48%
    17:00 +25°C° 0 mm 1 m/s 755 mmHg 52%
    18:00 +24°C° 0 mm 1 m/s 754 mmHg 56%
    19:00 +24°C° 0 mm 1 m/s 754 mmHg 61%
    20:00 +23°C° 0 mm 1 m/s 754 mmHg 63%
    21:00 +21°C° 0 mm 1 m/s 755 mmHg 65%
    22:00 +18°C° 0 mm 0 m/s 755 mmHg 67%
    23:00 +19°C° 0 mm 1 m/s 755 mmHg 70%

    19 Iulie, Vineri

    Timp Temperatura Precipitaţii Vânt Presiune Umiditate
    00:00 +19°C° 0 mm 1 m/s 754 mmHg 74%
    01:00 +18°C° 0 mm 1 m/s 754 mmHg 77%
    02:00 +18°C° 0 mm 1 m/s 754 mmHg 78%
    03:00 +16°C° 0 mm 1 m/s 754 mmHg 80%
    04:00 +16°C° 0 mm 1 m/s 754 mmHg 81%
    05:00 +18°C° 0.1 mm 1 m/s 754 mmHg 81%
    06:00 +18°C° 0.1 mm 2 m/s 754 mmHg 80%
    07:00 +18°C° 0.1 mm 2 m/s 755 mmHg 79%
    08:00 +19°C° 0.3 mm 2 m/s 755 mmHg 77%
    09:00 +20°C° 0.3 mm 3 m/s 755 mmHg 75%
    10:00 +21°C° 0.3 mm 3 m/s 755 mmHg 73%
    11:00 +22°C° 0.8 mm 3 m/s 755 mmHg 71%
    12:00 +23°C° 0.8 mm 4 m/s 755 mmHg 69%
    13:00 +23°C° 0.8 mm 4 m/s 755 mmHg 67%
    14:00 +23°C° 0.6 mm 4 m/s 756 mmHg 67%
    15:00 +23°C° 0.6 mm 4 m/s 756 mmHg 67%
    16:00 +23°C° 0.6 mm 4 m/s 756 mmHg 67%
    17:00 +22°C° 0.3 mm 3 m/s 756 mmHg 71%
    18:00 +22°C° 0.3 mm 3 m/s 757 mmHg 74%
    19:00 +21°C° 0.3 mm 2 m/s 757 mmHg 77%
    20:00 +20°C° 0 mm 2 m/s 757 mmHg 79%
    21:00 +18°C° 0 mm 2 m/s 758 mmHg 80%
    22:00 +17°C° 0 mm 2 m/s 758 mmHg 82%
    23:00 +18°C° 0 mm 1 m/s 759 mmHg 83%

    20 Iulie, Sâmbătă

    Timp Temperatura Precipitaţii Vânt Presiune Umiditate
    00:00 +16°C° 0 mm 1 m/s 759 mmHg 85%
    01:00 +16°C° 0 mm 1 m/s 759 mmHg 87%
    02:00 +15°C° 0 mm 1 m/s 759 mmHg 88%
    03:00 +14°C° 0 mm 0 m/s 759 mmHg 89%
    04:00 +14°C° 0 mm 0 m/s 759 mmHg 90%
    05:00 +16°C° 0 mm 1 m/s 759 mmHg 86%
    06:00 +18°C° 0 mm 1 m/s 760 mmHg 82%
    07:00 +19°C° 0 mm 1 m/s 760 mmHg 79%
    08:00 +21°C° 0 mm 1 m/s 760 mmHg 72%
    09:00 +21°C° 0 mm 2 m/s 760 mmHg 66%
    10:00 +24°C° 0 mm 2 m/s 760 mmHg 60%
    11:00 +25°C° 0.1 mm 2 m/s 760 mmHg 57%
    12:00 +26°C° 0.1 mm 2 m/s 760 mmHg 53%
    13:00 +27°C° 0.1 mm 2 m/s 759 mmHg 50%
    14:00 +27°C° 0 mm 2 m/s 759 mmHg 50%
    15:00 +27°C° 0 mm 1 m/s 759 mmHg 50%
    16:00 +27°C° 0 mm 1 m/s 759 mmHg 50%
    17:00 +26°C° 0 mm 1 m/s 759 mmHg 54%
    18:00 +26°C° 0 mm 1 m/s 759 mmHg 57%
    19:00 +25°C° 0 mm 1 m/s 760 mmHg 61%
    20:00 +24°C° 0.1 mm 1 m/s 760 mmHg 65%
    21:00 +22°C° 0.1 mm 1 m/s 760 mmHg 69%
    22:00 +21°C° 0.1 mm 1 m/s 760 mmHg 73%
    23:00 +21°C° 0.1 mm 1 m/s 760 mmHg 75%

    21 Iulie, Duminică

    Timp Temperatura Precipitaţii Vânt Presiune Umiditate
    00:00 +20°C° 0.1 mm 1 m/s 760 mmHg 78%
    01:00 +19°C° 0.1 mm 1 m/s 760 mmHg 81%
    02:00 +19°C° 0.1 mm 1 m/s 760 mmHg 83%
    03:00 +18°C° 0.1 mm 1 m/s 761 mmHg 84%
    04:00 +16°C° 0.1 mm 0 m/s 761 mmHg 86%
    05:00 +17°C° 0 mm 0 m/s 761 mmHg 82%
    06:00 +21°C° 0 mm 1 m/s 761 mmHg 78%
    07:00 +22°C° 0 mm 1 m/s 761 mmHg 74%
    08:00 +24°C° 0 mm 1 m/s 761 mmHg 67%
    09:00 +26°C° 0 mm 1 m/s 762 mmHg 60%
    10:00 +26°C° 0 mm 0 m/s 762 mmHg 53%
    11:00 +27°C° 0 mm 0 m/s 762 mmHg 49%
    12:00 +28°C° 0 mm 0 m/s 762 mmHg 46%
    13:00 +29°C° 0 mm 0 m/s 762 mmHg 42%
    14:00 +29°C° 0 mm 0 m/s 762 mmHg 43%
    15:00 +30°C° 0 mm 1 m/s 762 mmHg 43%
    16:00 +30°C° 0 mm 1 m/s 762 mmHg 44%
    17:00 +29°C° 0 mm 1 m/s 762 mmHg 48%
    18:00 +28°C° 0 mm 1 m/s 762 mmHg 53%
    19:00 +27°C° 0 mm 1 m/s 762 mmHg 57%
    20:00 +26°C° 0 mm 1 m/s 763 mmHg 61%
    21:00 +25°C° 0 mm 1 m/s 763 mmHg 64%
    22:00 +23°C° 0 mm 1 m/s 763 mmHg 68%
    23:00 +22°C° 0 mm 1 m/s 763 mmHg 71%
    Arată mai mult